Zurück zum Katalog

ONEWEB-0151

AktivKommunikationPO
NORAD 48066·PAYLOAD·🇬🇧 United Kingdom

Gestartet Mar 25, 2021 von Vostochny Cosmodrome

Loading…

Nächste Überflüge (nächste 24 Stunden)

TLE

AktuellSource: CelesTrak SupGP

Epoche: Sep 14, 2026, 23:16 UTC

1 48066C 21025AA  26257.96958751  .00003562  00000+0  97654-2 0  2571
2 48066  87.8925 302.3602 0001878  93.1522 302.7603 13.13467036    13

Verfolge ONEWEB-0151 in Echtzeit mit AllMySat

Download on the App Store